Location: Northcutt
(34.7304°N, 84.4305°W)
Time: 11:03:44
(UTC+00:00)

A-11 Canister half - Pass Details

Date: 12 October 2022
Orbit: 1524 x 1685 km, 47.3° (Epoch: 30 November)

Event Time Altitude Azimuth Distance (km) Brightness Sun altitude
Rises 17:52:00 0° 235° (SW) 4,712 12.0 47.2°
Reaches altitude 10° 17:55:04 10° 236° (SW) 3,715 11.6 47.1°
Maximum altitude 18:04:27 84° 325° (NW) 1,534 9.8 46.6°
Drops below altitude 10° 18:13:47 10° 54° (NE) 3,696 10.8 46.1°
Sets 18:16:50 0° 55° (NE) 4,687 11.2 45.9°
